Location: Recife
(8.0585°S, 34.8848°W)
Time: 21:23:36
(UTC-03:00)

A-11 Canister half - Pass Details

Date: 18 April 2026
Orbit: 1515 x 1684 km, 47.2° (Epoch: 16 May)

Event Time Altitude Azimuth Distance (km) Brightness Sun altitude
Rises 00:37:41 0° 222° (SW) 4,747 - -70.4°
Reaches altitude 10° 00:40:47 10° 222° (SW) 3,741 - -69.6°
Maximum altitude 00:50:13 85° 309° (NW) 1,531 - -67.3°
Drops below altitude 10° 00:59:27 10° 38° (NE) 3,662 - -65.1°
Exits shadow 01:01:24 - 38° (NE) 4,296 11.6 -64.6°
Sets 01:02:27 0° 38° (NE) 4,643 11.8 -64.3°
